{"data":{"norad_id":45143,"intl_designator":"2020-008N","name":"ONEWEB-0035","alt_names":[],"object_type":"PAYLOAD","status":"ACTIVE","operator":null,"country":"UK","launch_date":"2020-02-06","launch_site_code":"TYMSC","launch_vehicle":null,"mission":null,"orbit_class":"UNKNOWN","rcs_meters":null,"size_class":null,"mass_kg":null,"dimensions":null,"purposes":["comms"],"wikipedia_slug":null,"has_3d_model":false,"image_url":null,"decayed_at":null,"tle_current":{"epoch":"2026-05-25T03:58:36.179328Z","epoch_age_seconds":57823,"freshness":"FRESH","line1":"1 45143U 20008N   26145.16569652 -.00015708  00000+0 -45037-1 0  9997","line2":"2 45143  87.8825  40.8532 0000470  97.3143 262.8037 13.10487688304929","mean_motion":13.10487688,"eccentricity":4.7e-5,"inclination_deg":87.8825,"raan_deg":40.8532,"arg_perigee_deg":97.3143,"mean_anomaly_deg":262.8037,"bstar":-0.045037,"rev_number":30492,"period_min":109.88275686875,"perigee_km":1220.9158610939,"apogee_km":1221.630205637,"semimajor_km":7599.4100333655,"source":"CELESTRAK","updated_at":"2026-05-25T13:38:22.335478Z"}}}